Tracking 32460 objects as of 11-Dec-2025
HD Live streaming from Space Station
objects crossing your sky now

OPS 5712 (P/L 152)

Track OPS 5712 (P/L 152) now!
10-day predictions
OPS 5712 (P/L 152) is classified as:


NORAD ID: 2873
Int'l Code: 1967-053G
Perigee: 901.6 km
Apogee: 910.8 km
Inclination: 70.0 °
Period: 103.0 minutes
Semi major axis: 7277 km
RCS: 0.648 m2 (medium)
Launch date: May 31, 1967
Source: United States (US)
Launch site: AIR FORCE WESTERN TEST RANGE (AFWTR)
Your satellite tracking list
Your tracking list is empty




NASA's NSSDC Master Catalog

Two Line Element Set (TLE):
1 02873U 67053G   25345.26478869  .00000202  00000-0  17843-3 0  9990
2 02873  69.9746  93.9518 0006324  16.0361   2.7761 13.98474571982247
Source of the keplerian elements: AFSPC